ARSIP 2018

No Kwitansi No Registrasi Tgl Registrasi No. PO/SPK Pekerjaan Periode Pemberi Kerja
918091208616044 1800000091353 12/09/2018 KR1800174 Perbaikan Gedung Pekerjaan pemindahan office WH F1 12 September 2018 – 30 Nopember 2018 PT. GS BATTERY
918091208616489 1800000090947 10/09/2018 1841962 Restructuring ex-RND Office ( Locker, Shower, Fin. 07 September 2018 – 30 Nopember 2018 PT. CIPTA MORTAR UTAMA
918090708505460 1800000089425 05/09/2018 4010980695 Fire Resistance For WH Store – Part 3 06 September 2018 – 14 Oktober 2018 PT. ETEX BUILDING PERFORMANCE INDONESIA
918090708505896 1800000089415 05/09/2018 4010980690 Fire Resistance For WH Store – Part 2 06 September 2018 – 14 Oktober 2018 PT. ETEX BUILDING PERFORMANCE INDONESIA
918090708505993 1800000089403 05/09/2018 4010980687 Fire Resistance For WH Store – Part 1 06 September 2018 – 14 Oktober 2018 PT. ETEX BUILDING PERFORMANCE INDONESIA
918090408426907 1800000087551 03/09/2018 KR1800029 Pembuatan saluran F2 31 agustus 2018 – 30 Nopember 2018 PT.GS BATTERY
918082308226883 1800000079970 21/08/2018 491/ILTI/PO/GA/VIII/18 Repair Ceramic For Pray Room Floor Construction Work ( At Main Office ) 25 Agustus s/d 9 September 2018 PT. Idemitsu Lube Indonesia
918082108214534 1800000079545 21/08/2018 10/PGA/MTI/VIII/2018 Pengurugan Tanah PT. Mitra Toyotaka Indonesia Cabang Karawang 23 Agustus 2018 – 18 Nopember 2018 PT. MITRA TOYOTAKA INDONESIA
9180081308067005 1800000074932 10/08/2018 135/SP/TL/XI/17 Pekerjaan Sipil Ruangan Proyek Bongkar Glatt 1 14 Agustus 2018 – 31 Agustus 2018 PT. SUPRA FERBINDO FARMA
918081008047948 1800000074440 09/08/2018 KR1800135 Pekerjaan perbaikan saluran F3 18 Agustus 2018 – 30 September 2018 PT. GS BATTERY
918080807975252 1800000072386 08/08/2018 KR1800113 Pekerjaan Perbaikan saptictank 08 agustus 2018 – 31 oktober 2018 PT. GS BATTERY
918080807975261 1800000072422 08/08/2018 KR1800124 Pekerjaan penggantian sling penyangga mesin area AMB Charging F2 08 agustus 2018 – 31 oktober 2018 PT. GS BATTERY
918073107795107 1800000066715 30/07/2018 POG/NT/1GT01/1806034 Plafond Ruang Gudang AC 2 bagian A 30 Juli 2018 – 31 Agustus 2018 PT. BINTANG TOEDJOE
918072707751562 1800000063921 27/07/2018 409/ILTI/PO/VII/18 Repainting Repair Wheel Steel Gate 1,2&3 31 Juli 2018 – 16 September 2018 PT. IDEMITSU LUBE TECHNO INDONESIA
918072607718683 1800000062386 24/07/2018 KR1800110 Pengadaan Pintu Alumunium Masjid 24 Juli 2018 – 24 September 2018 PT. GS BATTERY
918072607718426 1800000062319 24/07/2018 KR1800109 Pekerjaan Renovasi saluran gerbang utama 24 Juli 2018 – 24 September 2018 PT. GS BATTERY
918072607718820 1800000062341 24/07/2018 KR1800086 Pekerjaan Tambahan pembuatan gedung workshop pembuatan flashing dan talang 24 Juli 2018 – 24 September 2018 PT. GS BATTERY
918072307667723 1800000060216 20/07/2018 KR1800088 Pekerjaan Tambahan Pembuatan gedung Workshop ruang Kompresor 20 juli 2018 – 31 Agustus 2018 PT. GS BATTERY
918072307661877 1800000059908 20/07/2018 8600008647 Pemasangan kabel data dan instalasi telepon 21 Juli 2018 – 31 Juli 2018 PT. SUPRA FERBINDO FARMA
918072307661782 1800000059844 20/07/2018 KR1800089 Pekerjaan Tambahan Pembuatan Partisi Ruang Dojo 20 juli 2018 – 20 Agustus 2018 PT GS BATTERY
918072307661897 1800000059891 20/07/2018 011/ABI-FAC/VI/18 Perbaikan ceiling ducting AC Daikin 21 Juli 2018 – 21 Agustus 2018 PT. AJINOMOTO BAKERY INDONESIA
918070907356465 1800000049354 05/07/2018 4010944253 Renovation electrical room 05 Juli 2018 – 16 Agustus 2018 PT. ETEX BUILDING PERFORMANCE INDONESIA
918070907356534 1800000049349 05/07/2018 4010945054 Install safety guard for all sm7 area 05 Juli 2018 – 16 Agustus 2018 PT. ETEX BUILDING PERFORMANCE INDONESIA
918070407273400 1800000047156 03/07/2018 9000049261 Pasang Exhaust Fan Lama Penambahan Ducting area utility EBD 07 Juli 2018 – 07 Agustus 2018 PT. SUPRA FERBINDO FARMA
918070407273450 1800000047142 03/07/2018 9000055579 Penutupan Pipa Limbah 04 Juli 2018 – 04 Agustus 2018 PT. SUPRA FERBINDO FARMA
918070307245633 1800000046302 02/07/2018 KR1800097 Pekerjaan Rest Area AMB Pemasangan Pavling blok 03 Juli 2018 – 03 Agustus 2018 PT. GS BATTERY
918070307245584 1800000046311 02/07/2018 KR1800063 Perbaikan Pemasangan Grill Gutter Tangki Asam F3 03 Juli 2018 – 03 Agustus 2018 PT. GS BATTERY
918060706915222 1800000038779 06/06/2018 286/OTHER/YSI/V/2018 Pemasangan pagar BRC di Area Motor 06 Juni 2018 – 20 Juli 2018 PT. YAMANISPRING INDONESIA
918060706915009 1800000038806 06/06/2018 KC1700083 Pembuatan pit conveyor expander 09 Juni 2018 – 09 September 2018 PT. GS BATTERY
918060706915456 1800000038763 06/06/2018 046/SP/TL/V/18 Pekerjaan penggantian pintu besi biru menjadi alumunium di area kelas e 09 Juni 2018 – 09 Agustus 2018 PT. SUPRA FERBINDO FARMA
918060706915655 1800000038751 06/06/2018 8600008309 Cover differential pressure gauge 09 Juni 2018 – 09 Oktober 2018 PT. SUPRA FERBINDO FARMA
918053006720952 1800000033145 24/05/2018 020/SP/TL/III/18 Perbaikan sebagian plafon area printing 24 Mei 2018 – 07 Juni 2018 PT. SUPRA FERBINDO FARMA
918053006721203 1800000033132 24/05/2018 4010915915 demolistion & concrete for spacer cleaning 23 Mei 2018 – 23 Juni 2018 PT. ETEX BUILDING PERFORMANCE INDONESIA
918051606517899 1800000026265 15/05/2018 KR1800055 Perbaikan Realing tangga 19 Mei 2018 – 27 Mei 2018 PT. GS BATTERY
918051606518036 1800000026203 15/05/2018 KR1800060 Perbaikan kanopi tangga office plant 18 Mei 2018 – 24 Juni 2018 PT. GS BATTERY
918051406466599 1800000025302 14/05/2018 1841068 Additional work for new RnD Building Mezzanin dan balkon 14 Mei 2018 – 31 Agustus 2018 PT. CIPTA MORTAR UTAMA
918051406446612 1800000024977 11/05/2018 PO/LK-03/18/000867 Pemasangan atap fiber 2set produksi plant I dan produksi plant II 14 Mei 2018 – 31 Mei 2018 PT. PRALON
918050906380334 1800000024047 08/05/2018 020/PROC-GP/SPK/III/2018 Renovasi Lantai Ruang Cuci Alat Produksi Plant 1 Blok KK 10 Mei 2018 – 10 Juni 2018 PT. GENERO PHARMACEUTICALS INDONESIA
918042706173423 1800000019946 27/04/2018 012/SP/TLD/04/18 Pembuatan sumur resapan 4 titik 30 April 2018 – 31 Mei 2018 PT. TEMPO LAND
918042706166614 1800000019727 26/04/2018 LM180113 pemasangan partisi ruang dokumen 30 April 2018 – 31 Mei 2018 PT. ADVICS MANUFACTURING INDONESIA
318042606144663 1800000019149 25/04/2018 4010899979 Pekerjaan new gutter di cellulose building 26 April 2018 – 31 Mei 2018 PT. ETERNIT GRESIK
918042006076041 1800000016941 20/04/2018 41800797 Perbaikan Lantai Area Tangki 20 April 2018 – 20 Mei 2018 PT. TEMPO NATURAL PRODUCTS
918041806028267 1800000015616 17/04/2018 POG/NT/1GT01/1802160 Cor beton dan rel besi pintu area Pos 1 17 april 2018 – 17 mei 2018 PT. BINTANG TOEDJOE
918041605994294 1800000014878 13/04/2018 024/SP/TL/IV/18 Pekerjaan perbaikan dinding plafon dan epoxy lantai R. Sampling Hood 14 April 2018 – 30 Juni 2018 PT. SUPRA FERBINDO FARMA
918041605994342 1800000014873 13/04/2018 025/SP/TL/IV/18 Pekerjaan pembuatan tanggul area gudang finished good exist 2 16 April 2018 – 30 Juni 2018 PT. SUPRA FERBINDO FARMA
918041305936073 1800000013906 11/04/2018 019/SP/TL/III/18 Pekerjaan bongkar pasang plafond area gudang finish good 14 April 2018 – 14 Juni 2018 PT. SUPRA FERBINDO FARMA
918041105885791 1800000013780 05/04/2018 021/PROC-GP/SPK/III/2018 Pembuatan konstruksi penahan pondasi dan perbaikan dinding retak plant blok HH 09 April 2018 – 09 Juni 2018 PT. GENERO PHARMACEUTICALS INDONESIA
918040405713875 1800000011800 03/04/2018 31800742 Perbaikan plafon ruang loker wanita 05 April 2018 – 05 Mei 2018 PT. TEMPO NATURAL PRODUCTS
918040405713907 1800000011790 03/04/2018 KR1800029 Pembuatan saluran F2 04 April 2018 – 30 Juni 2018 PT. GS BATTERY
918032905608194 1800000010217 27/03/2018 No.0048/MARKETING/NF/2018 Renovasi Toilet office pria & wanita 27 Maret 2018 – 27 Mei 2018 PT. YAMADA INDONESIA
918032905608252 1800000010222 27/03/2018 No. 0039/MARKETING/NF/2018 Renovasi Toilet factory pria & wanita 27 Maret 2018 – 27 Mei 2018 PT. YAMADA INDONESIA
918032905608330 1800000010239 27/03/2018 KR1800010 Pemasangan partisi area maintenance 24 Maret 2018 – 24 April 2018 PT. GS BATTERY
1800000010232 1800000010232 27/03/2018 004/SP/TL/III/18 Pekerjaan sipil renovasi pintu double reaktivasi mesin comadis 24 Maret 2018 – 13 April 2018 PT. SUPRA FERBINDO FARMA
918032905608122 1800000010236 27/03/2018 011/SP/TL/III/18 Pekerjaan pengecatan dinding sisi barat bangunan gedung 1 24 Maret 2018 – 10 Juni 2018 PT. SUPRA FERBINDO FARMA
918032905608359 1800000010226 27/03/2018 006/SP/TL/III/18 Pekerjaan perbaikan retakan jendela dan dinding bangunan GD. 1 24 Maret 2018 – 10 Juni 2018 PT. SUPRA FERBINDO FARMA
918031605407156 1800000006610 16/03/2018 4010872785 Pekerjaan pedestrian Frparking mushola 19 Maret 2018 – 31 Mei 2018 PT. ETERNIT GRESIK
918031605407001 1800000006520 15/03/2018 KR1800012 Pekerjaan renovasi area workshop 15 Maret 2018 – 30 Juni 2018 PT. GS BATTERY
918031605407067 1800000006532 15/03/2018 4010862932 Pekerjaan civil work for hidraulic dock leveler 14 Maret 2018 – 31 Mei 2018 PT. ETERNIT GRESIK
918030805237056 1800000004782 07/03/2018 PO2289 Pembuatan TPS 07 Maret 2018 – 07 April 2018 PT. SANKEI DHARMA INDONESIA
918022805105774 1800000002670 27/02/2018 KG1800125 Perbaikan atap bocor area formation line 01 Maret 2018 – 15 April 2018 PT. GS BATTERY
918022605076769 1800000001898 26/02/2018 L1801472 Pekerjaan konstruksi rest room 26 Februari 2018 – 30 Juni 2018 PT. INOAC POLYTECHNO INDONESIA
918022605076774 1800000001901 26/02/2018 L1801471 Pekerjaan konstruksi training center 26 Februari 2018 – 30 Juni 2018 PT. INOAC POLYTECHNO INDONESIA
1800000000718 1800000000718 19/02/2018 148/SP/TL/XII/17 Pekerjaan pembongkaran kerangkeng reject prekusor 19 Februari 2018 – 18 Maret 2018 PT. SUPRA FERBINDO FARMA
1800000000711 1800000000711 14/02/2018 KG1800128 Penggantian Atap polycarbonat Area formation WWT 15 Februari 2018 – 15 Maret 2018 PT. GS BATTERY
1800000000707 1800000000707 14/02/2018 KG1800106 Pembuatan partisi media informasi F1 15 Februari 2018 – 31 Maret 2018 PT. GS BATTERY
1800000000716 1800000000716 14/02/2018 POM/NT/1MT01/1802021 Perbaikan kebocoran ex gudang FA Lt. 5 15 Februari 2018 – 15 Maret 2018 PT. BINTANG TOEDJOE
18021306535399 7-11894202493 12/02/2018 2018/NGI/I/0082 pemotongan pipa existing 12 Februari 2018 – 12 Maret 2018 PT. NITIGURA INDONESIA
18021306535370 7-11894746364 12/02/2018 4010850892 pekerjaan gutter and concrete 12 Februari 2018 – 12 Maret 2018 PT. ETERNIT GRESIK
18021206527039 7-11879487283 09/02/2018 KG1800103 perbaikan atap demin 06 Februari 2018 – 12 Maret 2018 PT. GS BATTERY
18020706497988 7-11825813893 05/02/2018 KG1800083 perbaikan gedung penggantian talang 05 Februari 2018 – 11 Maret 2018 PT. GS BATTERY
18020706497968 7-11826940009 05/02/2018 146/SP/TL/XII/17 pekerjaan sipil proyek penempatan dan instalasi mesin 05 Februari 2018 – 28 Februari 2018 PT. SUPRA FERBINDO FARMA
18012506408091 7-11703425333 24/01/2018 0037/MARKETING/NF/2018 perbaikan kebocoran atap 24 Januari 2018 – 17 Maret 2018 PT. YAMADA INDONESIA
18011606335290 7-11602882423 15/01/2018 1840043 Pekerjaan tambahan RND 15 Januari 2018 – 30 April 2018 PT. CIPTA MORTAR UTAMA
18010406251738 7-11451838882 04/01/2018 0000000629/IDO2-PMPO0/ER/12/17 Rubbish collection station works 05 Januari 2018 – 05 April 2018 PT. BBRAUN MEDICAL INDONESIA
18010406251753 7-11451838885 04/01/2018 511/PROC/SPK/IX/2017 Pembuatan Area flammable room 10 Januari 2018 – 10 Mei 2018 PT. GENERO PHARMACEUTICALS INDONESIA
18010406251714 7-11451838884 04/01/2018 0000000628/ID02-PMPO0/ER/12/17 Extension of BU-F 05 Januari 2018 – 05 April 2018 PT. BBRAUN MEDICAL INDONESIA

 
ARSIP 2017

No Kwitansi No Registrasi Tgl Registrasi No. PO/SPK Pekerjaan Periode Pemberi Kerja
17122806217779 7-11379791126 28/12/2017 0000000613/ID02-PMPO0/ER/11/17 Sport field centre 27 Desember 2017 – 14 April 2018 PT. BBRAUN MEDICAL INDONESIA
17122806217747 7-11379385781 28/12/2017 0000000611/ID02-PMPO0/ER/11/17 Concrete chiller foundation & cooling water foundation works 27 Desember 2017 – 14 April 2018 PT. BBRAUN MEDICAL INDONESIA
17122806217634 7-11380235301 28/12/2017 0000000587/ID02-PMPO0/ER/11/17 Stone Retaining Wall Works 26 Desember 2016 – 26 Maret 2018 PT. BBRAUN MEDICAL INDONESIA
17122106181740 7-11300134342 21/12/2017 FR/PO/PROC/17/XII/1580 Pembuatan pagar pembatas di area TPS Domestik 22 Desember 2017 – 12 Januari 2018 PT. Mandom Indonesia Tbk
17122006168591 7-11288533202 20/12/2017 4100306832 Pekerjaan Ducting dan accs 27 Desember 2017 – 15 Januari 2018 PT. Kawan Lama Sejahtera
17120606046398 7-11084328242 05/12/2017 POM/NT/1MT01/1711040 Penggantian peredam panas area genset uk 5m x 5m 5 Desember 2017 – 30 Desember 2017 PT. BINTANG TOEDJOE
17120406028874 7-11048212422 04/12/2017 1740566 Pekerjaan CBT Modification & Tower Ventilation 4 Desember 2017 – 11 Maret 2018 PT. CIPTA MORTAR UTAMA
17120406028883 7-11048212424 04/12/2017 595/OTHER/YSI/XI/2017 Perbaikan dinding yang terkena trolly ( 3 titik ) 4 Desember 2017 – 24 Desember 2017 PT. Yamani Spring Indonesia
17111605925136 7-10759512492 16/11/2017 104/SP/TL/X/17 Perbaikan plafon area koridor kemas sekunder 2 dan locker wanita dan pria 18 Nopember 2017 – 31 Desember 2017 PT. TEMPO LAND
17111605925096 7-10759512493 16/11/2017 KG1701227 Perbaikan atap tangga kanopi rectifier 14 Nopember 2017 – 30 Nopember 2017 PT. GS BATTERY
17112305979218 7-10838203963 23/11/2017 KR1700104 Perbaikan saluran MRZ 23 Nopember 2017 – 11 Februari 2018 PT. GS BATTERY
17112305979287 7-10838203964 23/11/2017 KG1701267 Pembuatan pagar pengaman balkon office lt 2 dan 3 23 Nopember 2017 – 17 Desember 2017 PT. GS BATTERY
17110305839259 7-10565968552 03/11/2017 036/SP/TLD/10/17 Pembuatan klinik spare tempat tong dan tempat sampah 06 November 2017 – 01 April 2018 PT. TEMPO NATURAL PRODUCTS
17102605785370 7-10480044992 26/10/2017 4200054329 Pekerjaan pemasangan pagar seng proyek 30 Oktober 2017 – 31 Desember 2017 PT. TIGA DUA DELAPAN
17102605777846 7-10469178522 26/10/2017 4500131231 Repair & repainting floor EMI workshop building 17 A 25 Oktober 2017 – 26 November 2017 PT. MERCEDES BENZ
17101805721396 7-10369900052 17/10/2017 KG1701127 Pekerjaan perbaikan atap AMB Charging 20 Oktober 2017 – 27 Oktober 2017 PT. GS BATTERY
17101805721428 7-10369900053 17/10/2017 0243/PO-HLIDN/OKTOBER/2017 Pekerjaan pembuatan kanopi parkir motor 18 Oktober 2017 – 05 November 2017 PT. HONDA LOGISTICS INDONESIA
17091905522088 7-9537144673 19/09/2017 POG/AT/1GT01/1709189 Pembuatan Compounding Liquid 4 dan panel 19 September 2017 – 3 Desember 2017 PT. BINTANG TOEDJOE
17091905522113 7-9537144672 19/09/2017 KN1705980 Pengecatan Body dust collector 15 September 2017 – 7 Oktober 2017 PT. GS BATTERY
17091205467784 7-9450122292 12/09/2017 KR1700066 Compressor Room AMB 11 September 2017- 10 Desember 2017 PT. GS BATTERY
17090705444716 7-9419046993 07/09/2017 170003666 Pekerjaan Plat cibitung: New RND centre building 11 September 2017 – 25 Desember 2017 PT. CIPTA MORTAR UTAMA
17090705444704 7-9416259520 07/09/2017 468/OTHER/YSI/IX/2017 Pemasangan kanopi area blower (Luar ruangan grinding) 5 September 2017 – 13 September 2017 PT. Yamani Spring Indonesia
17090705444670 7-9419046996 07/09/2017 4200051193 Pekerjaan ME loading dock 7 September 2017 – 7 Oktober 2017 PT. HOME CENTER INDONESIA
17090705444686 7-9419046995 07/09/2017 4200051192 Pekerjaan sipil interior loading dock 7 September 2017 – 7 Oktober 2017 PT. HOME CENTER INDONESIA
17082905389965 7-9333674362 29/08/2017 09/VIII/BA/Aug/2017 Perbaikan lantai 29 Agustus 2017 – 18 September 2017 PT. BIFARMA ADILUHUNG
17082905389906 7-9333674361 29/08/2017 KN1705502 Pengecatan scrubber 29 Agustus 2017 – 10 September 2017 PT. GS BATTERY
17081805329993 7-9241772603 18/08/2017 KG1700863 Pembuatan saluran got area AMB Charging 19 Agustus 2017 – 29 Oktober 2017 PT. GS BATTERY
17080805257295 7-9117887172 08/08/2017 POG/NT/1GT01/1707085 Renovasi ruang chemical HCI dan NaOH 11 Agustus 2017 – 31 Agustus 2017 PT. BINTANG TOEDJOE
17080805257261 7-9117887173 08/08/2017 002/AIM-NF-PM/VII-17 Pekerjaan penggantian plafond dilokasi gedung 07 Agustus 2017 – 17 Agustus 2017 PT. AKURAT INTAN MADYA
17071905130115 7-8811053833 19/07/2017 KN1604207 Pemasangan paving blok ekisting lead part 19 Juli 2017 – 9 Agustus 2017 PT. GS BATTERY
17071205089245 7-8651040713 12/07/2017 KG1700748 Perbaikan gedung pekerjaan ruang loker 11 Juli 2017 – 19 Agustus 2017 PT. GS BATTERY
17071105075429 7-8632339903 11/07/2017 062/SP/TL/VII/17 Pekerjaan perbaikan kanopi dan tangga masuk ke lantai 2 12 Juli 2017 – 19 Agustus 2017 PT. TEMPO NATURAL PRODUCTS
17071105075525 7-8632339905 11/07/2017 061/SP/TL/VII/17 Pekerjaan pengecatan dinding 12 Juli 2017 – 3 Agustus 2017 PT. TEMPO NATURAL PRODUCTS
17050404679666 7-7711127472 04/05/2017 4200045485 Penggalian lubang pohon trembesi 04 Mei 2017 – 25 Mei 2017 PT. TIGA DUA DELAPAN
17062105007042 7-8518586094 21/06/2017 PO170002684/NFO0001 Perbaikan pintu gerbang gate pos 2 20 Juni 2017 – 09 Juli 2017 PT. CIPTA MORTAR UTAMA
17062105006965 7-8518586093 21/06/2017 POG/NT/1GT01/1705037 Perluasan buffer produksi 22 Juni 2017 – 09 Juli 2017 PT. BINTANG TOEDJOE
17061904988582 7-8487973503 19/06/2017 PO170002773/NFO0001 Reconstruction of concrete road and slab 20 Juni 2017 – 09 Juli 2017 PT. CIPTA MORTAR UTAMA
17061604975367 7-8474373479 16/06/2017 FR/PO/PRC/17/VI/555 Pembuatan lapangan futsal outdoor 14 Juni 2017 – 17 Agustus 2017 PT. MANDOM INDONESIA
17060604884412 7-8326416673 06/06/2017 KG1700653 Pembuatan rest area 07 Juni 2017 – 09 Juli 2017 PT. GS BATTERY
17060504870657 7-8311944052 05/06/2017 045/SP/TL/V/17 Pekerjaan perbaikan weighing booth solid 31 Mei 2017 – 30 Juni 2017 PT. SUPRA FERBINDO FARMA
17060504870678 7-8311944055 05/06/2017 046/SP/TL/V/17 Pekerjaan perbaikan weighing booth semi solid 31 Mei 2017 – 30 Juni 2017 PT. SUPRA FERBINDO FARMA
1706050487069 7-8311944054 05/06/2017 042/SP/TL/V/17 Pekerjaan renovasi area gudang finish good 31 Mei 2017 – 31Juli 2017 PT. SUPRA FERBINDO FARMA
17061604979161 7-8481377333 16/06/2017 4200045962 Pekerjaan Sipil Interior 14 Mei 2017 – 15 Juli 2017 PT. Ace Hardware Indonesia
17061604979149 7-8476027323 16/06/2017 4200045968 Pekerjaan ME 14 Mei 2017 – 15 Juli 2017 PT. Ace Hardware Indonesia
17050204659737 7-7629710513 02/05/2017 KN1702616 Kontruksi pondasi timbangan 27 April 2017- 10 Mei 2017 PT. GS BATTERY
17050304674229 7-7601252033 27/04/2017 0200/NGI/IV/17 Pemindahan mesin dan layuot 29 Apri 2017 – 31 Mei 2017 PT. NITIGURA INDONESIA
17041004537030 7-7408567152 10/04/2017 027/012/SPK/DISDIKPORA/III/2017 Pengecatan SMPN 5 Karawang 10 April 2017 – 15 Mei 2017 DISDIKPORA
17032104418077 7-7200649242 20/03/2017 KG1700292 Pembuatan rest area 18 Maret 2017 – 2 April 2017 PT. GS Battery
17030204279061 7-6967766892 02/03/2017 POM/NT/1MT01/1702090 Bongkar pasang atap dan talang area koridor depan teknik 01 Maret 2017 – 15 Maret 2017 PT . Bintang Toedjoe
17022404249660 7-6908429852 24/02/2017 098/OTHER/YSI/II/2017 Penggantian plafond 25 Februari 2017 – 15 April 2017 PT. Yamani Spring Indonesia
17022404249691 7-6908429855 24/02/2017 098/OTHER/YSI/II/2017 pemasangan tray kabel 25 Februari 2017 – 15 April 2017 PT. Yamani Spring Indonesia
17021004163240 7-6765725242 10/02/2017 SN1700131 Perbaikan atap kantor pasting 13 Februari 2017 – 28 Februari 2017 PT. GS Battery sunter
17011703996774 7-6425651032 17/01/2017 KC1600082 Pembuatan tangga samping mushola 16 Januari 2017 – 31 Februari 2017 PT. GS Battery
17011603988745 7-6414541513 16/01/2017 3/PGA/MTI//2017 Perbaikan bangunan gedung office 16 Januari 2017 – 31 Maret 2017 PT. Mitra Toyotaka Indonesia
17011303974971 7-6390541531 13/01/2017 PO/PLG/151/1216/134 Pembuatan atap kanopi AHU lt. 4 12 Januari 2017 – 28 Februari 2017 PT . Bintang Toedjoe
17010503911654 7-6162148745 04/01/2017 PO/PLG/152/111/075 Pekerjaan dinding luar plat pulogadung 04 Januari 2017 – 15 April 2017 PT . Bintang Toedjoe
17010503911724 7-616148743 04/01/2017 4400007267 Pembuatan ruangan filling HCGA 09 Januari 2017 – 15 Februari 2017 PT. Nippon Indosari Corpindo